Weather History for KDNL - October, 2013

Change the Weather History Date:

Tuesday, October 1, 2013

  Actual Average Record
Temperature  
Mean Temperature 71 °F -  
Max Temperature 82 °F 78 °F 88 °F (1998)
Min Temperature 59 °F 59 °F 35 °F (2001)
Cooling Degree Days 6    
Month to date cooling degree days 6  
Year to date cooling degree days 1952  
Growing Degree Days 20 (Base 50)    
Moisture  
Dew Point 57 °F    
Average Humidity 66    
Maximum Humidity 93    
Minimum Humidity 40    
Precipitation  
Precipitation 0.00 in - - ()
Month to date precipitation 0.00  
Year to date precipitation 50.47  
Sea Level Pressure  
Sea Level Pressure 30.10 in    
Wind  
Wind Speed 3 mph (NNW)    
Max Wind Speed 10 mph    
Max Gust Speed 14 mph    
Visibility 10 miles    
Events      
Averages and records for this station are not official NWS values.
T = Trace of Precipitation, MM = Missing Value Source: NWS Daily Summary

Daily Weather History Graph

Daily Weather History Graph

Search for Another Location

Airport or City:

Trip Planner

Search our weather history database for the weather conditions in past years. The results will help you decide how hot, cold, wet, or windy it might be!

Date:

Astronomy

Oct. 01, 2013 Rise Set
Actual Time 7:22 AM EDT 7:12 PM EDT
Civil Twilight 6:57 AM EDT 7:37 PM EDT
Nautical Twilight 6:29 AM EDT 8:05 PM EDT
Astronomical Twilight 6:00 AM EDT 8:34 PM EDT
Moon 4:04 AM EDT (10/1) 5:08 PM EDT (10/1)
Length of Visible Light 12h 39m
Length of Day
11h 49m
Waning Crescent, 12% of the Moon is Illuminated
Oct 1
Waning Crescent
Oct 4
New
Oct 11
First Quarter
Oct 18
Full
Oct 26
Last Quarter

Hourly Weather History & Observations

Time (EDT) Temp. Heat Index Dew Point Humidity Pressure Visibility Wind Dir Wind Speed Gust Speed Precip Events Conditions
12:53 AM 63.0 °F - 57.0 °F 81% 30.08 in 10.0 mi Calm Calm - N/A   Clear
1:53 AM 62.1 °F - 57.0 °F 84% 30.08 in 10.0 mi Calm Calm - N/A   Clear
2:53 AM 62.1 °F - 57.0 °F 84% 30.08 in 10.0 mi Calm Calm - N/A   Clear
3:53 AM 62.1 °F - 55.9 °F 80% 30.07 in 10.0 mi Calm Calm - N/A   Clear
4:53 AM 61.0 °F - 55.9 °F 83% 30.08 in 10.0 mi Calm Calm - N/A   Clear
5:53 AM 59.0 °F - 55.9 °F 90% 30.10 in 10.0 mi NW 4.6 mph - N/A   Clear
6:53 AM 59.0 °F - 55.9 °F 90% 30.12 in 10.0 mi Calm Calm - N/A   Clear
7:53 AM 59.0 °F - 57.0 °F 93% 30.13 in 10.0 mi NNW 6.9 mph - N/A   Clear
8:53 AM 64.0 °F - 60.1 °F 87% 30.15 in 10.0 mi NNW 5.8 mph - N/A   Clear
9:53 AM 69.1 °F - 60.1 °F 73% 30.17 in 10.0 mi NNW 9.2 mph - N/A   Clear
10:53 AM 72.0 °F - 60.1 °F 66% 30.17 in 10.0 mi NW 6.9 mph - N/A   Clear
11:53 AM 75.0 °F - 57.9 °F 55% 30.16 in 10.0 mi WNW 4.6 mph - N/A   Clear
12:53 PM 77.0 °F - 57.9 °F 52% 30.14 in 10.0 mi Calm Calm - N/A   Clear
1:53 PM 78.1 °F - 55.9 °F 46% 30.11 in 10.0 mi Variable 4.6 mph - N/A   Clear
2:53 PM 80.1 °F 80.4 °F 57.0 °F 45% 30.09 in 10.0 mi NE 6.9 mph - N/A   Clear
3:53 PM 81.0 °F 80.8 °F 55.9 °F 42% 30.07 in 10.0 mi Variable 4.6 mph - N/A   Clear
4:53 PM 82.0 °F 81.4 °F 55.0 °F 39% 30.06 in 10.0 mi Variable 4.6 mph - N/A   Clear
5:53 PM 80.1 °F 80.1 °F 55.0 °F 42% 30.06 in 10.0 mi Calm Calm - N/A   Clear
6:53 PM 79.0 °F - 57.0 °F 47% 30.07 in 10.0 mi NNW 3.5 mph - N/A   Clear
7:53 PM 73.9 °F - 57.9 °F 57% 30.08 in 10.0 mi Calm Calm - N/A   Clear
8:53 PM 73.0 °F - 59.0 °F 61% 30.10 in 10.0 mi North 3.5 mph - N/A   Clear
9:53 PM 72.0 °F - 57.9 °F 61% 30.11 in 10.0 mi NNE 3.5 mph - N/A   Clear
10:53 PM 72.0 °F - 55.0 °F 55% 30.12 in 10.0 mi ENE 3.5 mph - N/A   Clear
11:53 PM 69.1 °F - 57.0 °F 65% 30.12 in 10.0 mi Calm Calm - N/A   Clear